• In Czech Republic
  • List of Countries
  • For 7 days
  • Water Temperature
  • Satellite Maps
  • Weather Map
  • Weather Widgets
  • user-avatar
    Login

    Hourly Weather Lubango

    Today, 11 December, Monday

    Time Temperature Precipitation Wind Pressure Humidity
    00:00 +15°C° 0 mm 1 mps 608 mmHg 89%
    01:00 +15°C° 0 mm 1 mps 608 mmHg 90%
    02:00 +15°C° 0 mm 1 mps 608 mmHg 91%
    03:00 +15°C° 0 mm 1 mps 608 mmHg 91%
    04:00 +13°C° 0 mm 0 mps 607 mmHg 91%
    05:00 +15°C° 0 mm 1 mps 608 mmHg 87%
    06:00 +16°C° 0 mm 1 mps 609 mmHg 83%
    07:00 +18°C° 0 mm 1 mps 609 mmHg 78%
    08:00 +20°C° 0.2 mm 1 mps 610 mmHg 69%
    09:00 +22°C° 0.2 mm 1 mps 611 mmHg 60%
    10:00 +25°C° 0.2 mm 2 mps 611 mmHg 51%
    11:00 +25°C° 0.3 mm 2 mps 611 mmHg 49%
    12:00 +26°C° 0.3 mm 2 mps 611 mmHg 47%
    13:00 +26°C° 0.3 mm 3 mps 611 mmHg 45%
    14:00 +26°C° 0.6 mm 3 mps 610 mmHg 48%
    15:00 +25°C° 0.6 mm 3 mps 609 mmHg 52%
    16:00 +24°C° 0.6 mm 3 mps 608 mmHg 56%
    17:00 +21°C° 0.6 mm 3 mps 608 mmHg 63%
    18:00 +19°C° 0.6 mm 3 mps 608 mmHg 70%
    19:00 +18°C° 0.6 mm 2 mps 608 mmHg 77%
    20:00 +17°C° 0 mm 2 mps 608 mmHg 80%
    21:00 +16°C° 0 mm 2 mps 608 mmHg 84%
    22:00 +16°C° 0 mm 2 mps 608 mmHg 87%
    23:00 +15°C° 0 mm 1 mps 608 mmHg 88%

    Tomorrow, 12 December, Tuesday

    Time Temperature Precipitation Wind Pressure Humidity
    00:00 +15°C° 0 mm 1 mps 608 mmHg 89%
    01:00 +15°C° 0 mm 1 mps 607 mmHg 90%
    02:00 +14°C° 0 mm 1 mps 607 mmHg 90%
    03:00 +14°C° 0 mm 1 mps 607 mmHg 91%
    04:00 +14°C° 0 mm 1 mps 607 mmHg 91%
    05:00 +15°C° 0 mm 1 mps 607 mmHg 87%
    06:00 +16°C° 0 mm 1 mps 608 mmHg 83%
    07:00 +18°C° 0 mm 1 mps 609 mmHg 79%
    08:00 +20°C° 0.1 mm 1 mps 609 mmHg 69%
    09:00 +22°C° 0.1 mm 1 mps 610 mmHg 60%
    10:00 +24°C° 0.1 mm 2 mps 611 mmHg 50%
    11:00 +25°C° 0.4 mm 2 mps 611 mmHg 48%
    12:00 +26°C° 0.4 mm 3 mps 611 mmHg 45%
    13:00 +27°C° 0.4 mm 3 mps 610 mmHg 42%
    14:00 +26°C° 0.8 mm 4 mps 610 mmHg 47%
    15:00 +25°C° 0.8 mm 4 mps 609 mmHg 52%
    16:00 +23°C° 0.8 mm 4 mps 609 mmHg 56%
    17:00 +21°C° 0.6 mm 4 mps 608 mmHg 64%
    18:00 +19°C° 0.6 mm 3 mps 608 mmHg 71%
    19:00 +17°C° 0.6 mm 3 mps 608 mmHg 79%
    20:00 +16°C° 0 mm 2 mps 609 mmHg 81%
    21:00 +16°C° 0 mm 2 mps 609 mmHg 84%
    22:00 +15°C° 0 mm 1 mps 609 mmHg 87%
    23:00 +15°C° 0 mm 1 mps 609 mmHg 88%

    Day after tomorrow, 13 December, Wednesday

    Time Temperature Precipitation Wind Pressure Humidity
    00:00 +15°C° 0 mm 1 mps 609 mmHg 88%
    01:00 +14°C° 0 mm 1 mps 608 mmHg 89%
    02:00 +14°C° 0 mm 1 mps 608 mmHg 89%
    03:00 +14°C° 0 mm 1 mps 608 mmHg 90%
    04:00 +14°C° 0 mm 1 mps 607 mmHg 90%
    05:00 +14°C° 0 mm 1 mps 608 mmHg 85%
    06:00 +15°C° 0 mm 1 mps 608 mmHg 81%
    07:00 +16°C° 0 mm 1 mps 609 mmHg 76%
    08:00 +19°C° 0 mm 1 mps 610 mmHg 66%
    09:00 +22°C° 0 mm 1 mps 611 mmHg 55%
    10:00 +24°C° 0 mm 2 mps 612 mmHg 44%
    11:00 +25°C° 0 mm 2 mps 612 mmHg 41%
    12:00 +26°C° 0 mm 3 mps 612 mmHg 38%
    13:00 +27°C° 0 mm 3 mps 612 mmHg 35%
    14:00 +26°C° 0.3 mm 3 mps 611 mmHg 39%
    15:00 +25°C° 0.3 mm 4 mps 610 mmHg 43%
    16:00 +23°C° 0.3 mm 4 mps 609 mmHg 47%
    17:00 +21°C° 0.3 mm 4 mps 609 mmHg 56%
    18:00 +19°C° 0.3 mm 3 mps 609 mmHg 64%
    19:00 +18°C° 0.3 mm 2 mps 609 mmHg 73%
    20:00 +17°C° 0 mm 2 mps 609 mmHg 76%
    21:00 +16°C° 0 mm 2 mps 609 mmHg 80%
    22:00 +15°C° 0 mm 1 mps 609 mmHg 84%
    23:00 +15°C° 0 mm 1 mps 609 mmHg 85%

    14 December, Thursday

    Time Temperature Precipitation Wind Pressure Humidity
    00:00 +14°C° 0 mm 1 mps 609 mmHg 86%
    01:00 +14°C° 0 mm 1 mps 608 mmHg 87%
    02:00 +14°C° 0 mm 1 mps 608 mmHg 86%
    03:00 +13°C° 0 mm 1 mps 608 mmHg 85%
    04:00 +13°C° 0 mm 1 mps 607 mmHg 84%
    05:00 +14°C° 0 mm 1 mps 608 mmHg 77%
    06:00 +16°C° 0 mm 1 mps 609 mmHg 70%
    07:00 +18°C° 0 mm 1 mps 610 mmHg 63%
    08:00 +21°C° 0 mm 1 mps 611 mmHg 51%
    09:00 +23°C° 0 mm 1 mps 612 mmHg 40%
    10:00 +26°C° 0 mm 2 mps 613 mmHg 28%
    11:00 +27°C° 0 mm 2 mps 613 mmHg 25%
    12:00 +28°C° 0 mm 3 mps 612 mmHg 23%
    13:00 +29°C° 0 mm 3 mps 612 mmHg 21%
    14:00 +29°C° 0 mm 3 mps 611 mmHg 22%
    15:00 +28°C° 0 mm 4 mps 611 mmHg 24%
    16:00 +28°C° 0 mm 4 mps 610 mmHg 26%
    17:00 +25°C° 0 mm 3 mps 610 mmHg 34%
    18:00 +21°C° 0 mm 3 mps 609 mmHg 41%
    19:00 +19°C° 0 mm 2 mps 608 mmHg 49%
    20:00 +18°C° 0 mm 2 mps 608 mmHg 53%
    21:00 +18°C° 0 mm 1 mps 608 mmHg 58%
    22:00 +15°C° 0 mm 1 mps 608 mmHg 63%
    23:00 +15°C° 0 mm 1 mps 608 mmHg 63%

    15 December, Friday

    Time Temperature Precipitation Wind Pressure Humidity
    00:00 +15°C° 0 mm 1 mps 608 mmHg 64%
    01:00 +14°C° 0 mm 1 mps 607 mmHg 65%
    02:00 +14°C° 0 mm 1 mps 607 mmHg 65%
    03:00 +14°C° 0 mm 1 mps 607 mmHg 65%
    04:00 +13°C° 0 mm 1 mps 606 mmHg 64%
    05:00 +15°C° 0 mm 1 mps 607 mmHg 58%
    06:00 +15°C° 0 mm 0 mps 608 mmHg 52%
    07:00 +17°C° 0 mm 0 mps 609 mmHg 46%
    08:00 +21°C° 0 mm 1 mps 610 mmHg 38%
    09:00 +24°C° 0 mm 1 mps 611 mmHg 30%
    10:00 +27°C° 0 mm 1 mps 612 mmHg 22%
    11:00 +28°C° 0 mm 1 mps 612 mmHg 20%
    12:00 +29°C° 0 mm 2 mps 612 mmHg 19%
    13:00 +30°C° 0 mm 2 mps 612 mmHg 17%
    14:00 +30°C° 0 mm 3 mps 611 mmHg 19%
    15:00 +29°C° 0 mm 3 mps 611 mmHg 20%
    16:00 +28°C° 0 mm 4 mps 610 mmHg 22%
    17:00 +25°C° 0 mm 3 mps 609 mmHg 27%
    18:00 +22°C° 0 mm 3 mps 609 mmHg 33%
    19:00 +19°C° 0 mm 2 mps 608 mmHg 39%
    20:00 +18°C° 0 mm 2 mps 608 mmHg 42%
    21:00 +18°C° 0 mm 1 mps 608 mmHg 46%
    22:00 +15°C° 0 mm 1 mps 608 mmHg 50%
    23:00 +15°C° 0 mm 1 mps 608 mmHg 52%

    16 December, Saturday

    Time Temperature Precipitation Wind Pressure Humidity
    00:00 +14°C° 0 mm 1 mps 607 mmHg 53%
    01:00 +14°C° 0 mm 1 mps 607 mmHg 55%
    02:00 +14°C° 0 mm 1 mps 606 mmHg 54%
    03:00 +13°C° 0 mm 1 mps 606 mmHg 54%
    04:00 +13°C° 0 mm 1 mps 606 mmHg 54%
    05:00 +14°C° 0 mm 1 mps 607 mmHg 50%
    06:00 +16°C° 0 mm 1 mps 608 mmHg 46%
    07:00 +16°C° 0 mm 0 mps 609 mmHg 42%
    08:00 +21°C° 0 mm 1 mps 610 mmHg 35%
    09:00 +24°C° 0 mm 1 mps 611 mmHg 27%
    10:00 +27°C° 0 mm 1 mps 612 mmHg 20%
    11:00 +28°C° 0 mm 1 mps 612 mmHg 19%
    12:00 +29°C° 0 mm 2 mps 612 mmHg 17%
    13:00 +31°C° 0 mm 2 mps 612 mmHg 16%
    14:00 +30°C° 0 mm 3 mps 611 mmHg 17%
    15:00 +29°C° 0 mm 3 mps 610 mmHg 19%
    16:00 +29°C° 0 mm 4 mps 610 mmHg 20%
    17:00 +26°C° 0 mm 3 mps 609 mmHg 27%
    18:00 +22°C° 0 mm 3 mps 608 mmHg 33%
    19:00 +19°C° 0 mm 2 mps 608 mmHg 39%
    20:00 +18°C° 0 mm 2 mps 608 mmHg 44%
    21:00 +16°C° 0 mm 1 mps 608 mmHg 48%
    22:00 +15°C° 0 mm 1 mps 608 mmHg 52%
    23:00 +15°C° 0 mm 1 mps 608 mmHg 54%
    Show more